TimeEST,TemperatureF,Dew PointF,Humidity,Sea Level PressureIn,VisibilityMPH,Wind Direction,Wind SpeedMPH,Gust SpeedMPH,PrecipitationIn,Events,Conditions,WindDirDegrees,DateUTC
12:14 AM,31.1,30.7,99,29.65,1.5,East,3.5,-,N/A,,Overcast,90,2012-12-10 05:14:00
12:34 AM,31.1,30.7,99,29.64,2.0,Calm,Calm,-,N/A,,Overcast,0,2012-12-10 05:34:00
12:54 AM,31.1,30.9,99,29.64,2.0,Calm,Calm,-,N/A,,Overcast,0,2012-12-10 05:54:00
1:14 AM,31.1,30.9,99,29.62,2.0,ENE,3.5,-,N/A,,Overcast,60,2012-12-10 06:14:00
1:34 AM,31.1,30.9,99,29.62,1.8,Calm,Calm,-,N/A,,Overcast,0,2012-12-10 06:34:00
1:54 AM,31.1,30.9,99,29.62,1.2,Calm,Calm,-,N/A,,Overcast,0,2012-12-10 06:54:00
2:14 AM,31.5,31.1,99,29.62,2.0,Calm,Calm,-,N/A,,Overcast,0,2012-12-10 07:14:00
2:34 AM,31.6,31.1,98,29.62,2.0,Calm,Calm,-,N/A,Snow,Light Snow,0,2012-12-10 07:34:00
2:54 AM,31.8,31.5,99,29.62,1.5,Calm,Calm,-,N/A,Snow,Light Snow,0,2012-12-10 07:54:00
3:14 AM,31.8,31.5,99,29.61,1.2,Calm,Calm,-,N/A,,Overcast,0,2012-12-10 08:14:00
3:54 AM,32.0,32.0,100,29.60,0.8,Calm,Calm,-,N/A,,Overcast,0,2012-12-10 08:54:00
4:14 AM,32.2,32.0,99,29.59,0.8,Calm,Calm,-,N/A,Snow,Light Snow,0,2012-12-10 09:14:00
4:34 AM,32.9,32.5,99,29.59,1.2,WSW,4.6,-,N/A,,Overcast,240,2012-12-10 09:34:00
4:54 AM,33.3,32.9,99,29.59,2.0,WNW,4.6,-,N/A,,Overcast,290,2012-12-10 09:54:00
5:14 AM,32.0,32.0,100,29.61,0.8,NNW,5.8,-,N/A,,Overcast,330,2012-12-10 10:14:00
5:34 AM,32.0,32.0,100,29.60,2.0,West,4.6,-,N/A,,Overcast,260,2012-12-10 10:34:00
5:54 AM,32.4,32.0,99,29.59,5.0,West,4.6,-,N/A,,Overcast,260,2012-12-10 10:54:00
6:14 AM,32.7,32.4,99,29.61,7.0,West,4.6,-,N/A,,Overcast,270,2012-12-10 11:14:00
6:34 AM,32.5,32.2,99,29.60,2.0,WNW,8.1,-,N/A,Snow,Light Snow,290,2012-12-10 11:34:00
6:54 AM,32.5,32.2,99,29.61,4.0,West,4.6,-,N/A,Snow,Light Snow,270,2012-12-10 11:54:00
7:14 AM,32.5,32.2,99,29.62,7.0,West,6.9,-,N/A,,Overcast,280,2012-12-10 12:14:00
7:34 AM,32.5,32.2,99,29.63,10.0,West,5.8,-,N/A,,Overcast,280,2012-12-10 12:34:00
7:54 AM,32.5,32.0,98,29.63,7.0,WNW,8.1,-,N/A,Snow,Light Snow,290,2012-12-10 12:54:00
8:14 AM,32.5,32.0,98,29.64,10.0,West,5.8,-,N/A,,Overcast,280,2012-12-10 13:14:00
8:34 AM,32.4,32.0,99,29.65,10.0,West,5.8,-,N/A,,Overcast,270,2012-12-10 13:34:00
8:54 AM,32.4,31.8,98,29.65,10.0,WNW,10.4,-,N/A,,Overcast,290,2012-12-10 13:54:00
9:14 AM,32.2,31.6,98,29.67,10.0,WNW,8.1,-,N/A,,Overcast,290,2012-12-10 14:14:00
9:34 AM,32.4,31.6,97,29.66,10.0,WNW,6.9,-,N/A,,Overcast,290,2012-12-10 14:34:00
9:54 AM,32.2,31.1,96,29.66,10.0,WNW,8.1,-,N/A,,Overcast,300,2012-12-10 14:54:00
10:14 AM,32.0,30.6,94,29.67,10.0,NW,8.1,-,N/A,,Overcast,320,2012-12-10 15:14:00
10:34 AM,32.0,30.2,93,29.67,10.0,NW,8.1,-,N/A,,Overcast,320,2012-12-10 15:34:00
10:54 AM,32.0,30.2,93,29.69,10.0,NW,6.9,-,N/A,,Overcast,320,2012-12-10 15:54:00
11:14 AM,31.8,29.8,92,29.70,10.0,NNW,9.2,-,N/A,,Overcast,330,2012-12-10 16:14:00
11:34 AM,32.0,29.3,90,29.70,10.0,NW,5.8,-,N/A,,Overcast,320,2012-12-10 16:34:00
11:54 AM,32.0,29.5,90,29.69,10.0,NNW,6.9,-,N/A,,Overcast,330,2012-12-10 16:54:00
12:14 PM,32.0,29.7,91,29.69,10.0,NNW,8.1,-,N/A,,Mostly Cloudy,330,2012-12-10 17:14:00
12:34 PM,32.2,29.1,88,29.70,10.0,NNW,5.8,-,N/A,,Mostly Cloudy,330,2012-12-10 17:34:00
12:54 PM,32.9,29.3,87,29.70,10.0,NW,5.8,-,N/A,,Overcast,320,2012-12-10 17:54:00
1:14 PM,32.9,29.3,87,29.70,10.0,NW,9.2,-,N/A,,Overcast,320,2012-12-10 18:14:00
1:34 PM,32.9,29.7,88,29.70,10.0,NNW,9.2,-,N/A,,Overcast,330,2012-12-10 18:34:00
1:54 PM,33.4,29.3,85,29.69,10.0,NNW,9.2,-,N/A,,Mostly Cloudy,330,2012-12-10 18:54:00
2:14 PM,33.1,28.9,85,29.68,10.0,NNW,4.6,-,N/A,,Clear,330,2012-12-10 19:14:00
2:34 PM,33.4,28.9,84,29.69,10.0,NW,8.1,-,N/A,,Clear,310,2012-12-10 19:34:00
2:54 PM,33.8,28.8,82,29.69,10.0,NW,8.1,-,N/A,,Clear,310,2012-12-10 19:54:00
3:14 PM,33.4,28.2,81,29.70,10.0,NW,8.1,-,N/A,,Scattered Clouds,310,2012-12-10 20:14:00
3:34 PM,33.8,28.9,82,29.70,10.0,WNW,8.1,-,N/A,,Mostly Cloudy,300,2012-12-10 20:34:00
3:54 PM,34.3,28.6,79,29.71,10.0,NW,11.5,-,N/A,,Overcast,320,2012-12-10 20:54:00
4:14 PM,33.6,28.4,81,29.71,10.0,NNW,9.2,-,N/A,,Overcast,330,2012-12-10 21:14:00
4:34 PM,32.9,27.5,81,29.72,10.0,NW,9.2,-,N/A,,Overcast,320,2012-12-10 21:34:00
4:54 PM,32.5,27.0,80,29.72,10.0,NW,9.2,-,N/A,,Overcast,320,2012-12-10 21:54:00
5:14 PM,32.4,26.4,79,29.74,10.0,WNW,6.9,10.4,N/A,,Overcast,300,2012-12-10 22:14:00
5:34 PM,32.0,25.9,78,29.76,10.0,NW,6.9,-,N/A,,Overcast,310,2012-12-10 22:34:00
5:54 PM,32.0,23.2,70,29.77,10.0,NNW,10.4,-,N/A,,Overcast,330,2012-12-10 22:54:00
6:14 PM,31.8,23.0,70,29.78,10.0,NW,4.6,-,N/A,,Overcast,320,2012-12-10 23:14:00
6:34 PM,31.6,22.6,69,29.78,10.0,NW,9.2,-,N/A,,Overcast,320,2012-12-10 23:34:00
6:54 PM,31.6,22.8,70,29.79,10.0,NW,8.1,-,N/A,,Overcast,320,2012-12-10 23:54:00
7:14 PM,31.6,21.9,67,29.80,10.0,NW,6.9,-,N/A,,Overcast,310,2012-12-11 00:14:00
7:34 PM,31.5,22.6,70,29.81,10.0,NW,5.8,-,N/A,,Overcast,310,2012-12-11 00:34:00
7:54 PM,31.1,23.0,72,29.80,10.0,NNW,5.8,-,N/A,,Overcast,330,2012-12-11 00:54:00
8:14 PM,30.6,23.9,76,29.79,10.0,NNW,6.9,-,N/A,,Overcast,340,2012-12-11 01:14:00
8:34 PM,30.7,23.4,74,29.82,10.0,NNW,8.1,-,N/A,,Overcast,330,2012-12-11 01:34:00
8:54 PM,30.9,22.3,70,29.82,10.0,NW,4.6,-,N/A,,Overcast,320,2012-12-11 01:54:00
9:14 PM,30.7,21.9,70,29.83,10.0,NW,4.6,-,N/A,,Overcast,310,2012-12-11 02:14:00
9:54 PM,29.3,22.6,76,29.85,10.0,NNE,6.9,-,N/A,,Overcast,20,2012-12-11 02:54:00
10:14 PM,29.3,23.0,77,29.86,10.0,NNE,4.6,-,N/A,,Overcast,30,2012-12-11 03:14:00
10:34 PM,29.3,22.8,77,29.85,10.0,North,4.6,-,N/A,,Overcast,10,2012-12-11 03:34:00
10:54 PM,29.1,22.3,76,29.85,10.0,North,5.8,-,N/A,,Overcast,10,2012-12-11 03:54:00
11:14 PM,28.9,21.9,75,29.86,10.0,NNE,6.9,-,N/A,,Overcast,20,2012-12-11 04:14:00
11:34 PM,28.8,21.4,74,29.86,10.0,NNE,4.6,-,N/A,,Overcast,30,2012-12-11 04:34:00
11:54 PM,28.4,20.3,72,29.86,10.0,NNE,5.8,-,N/A,,Overcast,30,2012-12-11 04:54:00